Flag for U.S.A. Weather past 2 weeks in Long Beach, California, U.S.A.

Now
70 °F

Sunny.


Feels Like: 72 °F
Forecast: 65 / 79 °F
Wind: No wind

Location: Long Beach Airport

Current Time: Jul 22, 2014 at 9:03:35 AM

Latest Report: Jul 22, 2014 at 7:53 AM


Visibility: 10 mi

Pressure: 30.04 "Hg

Humidity: 76%

Dew point: 62 °F

Location of Long BeachLocation

Historic Weather in Long Beach — Graph

°F

Long Beach temperature yesterday

Maximum temperature yesterday: 79 °F (at 12:53 PM)
Minimum temperature yesterday: 66 °F (at 4:02 AM)
Average temperature yesterday: 72 °F

Past Weeks' High & Low Weather Summary

 TemperatureHumidityPressure
High83 °F (Jul 9, 2:53 PM)90% (Jul 8, 2:53 AM)30.06 "Hg (Jul 8, 2:53 AM)
Low64 °F (Jul 22, 5:53 AM)34% (Jul 7, 2:53 PM)29.84 "Hg (Jul 7, 5:53 PM)
Average72 °F71%29.96 "Hg
* Reported Jul 7 7:53 AM — Jul 22 7:53 AM, Long Beach, Weather by CustomWeather, © 2014

Note: Actual official high and low records may vary slightly from our data, if they occured in-between our weather recording intervals... More about our weather records

Advertising

Long Beach weather history for previous 24 hours

 ConditionsComfort  
Time TempWeatherWind HumidityBarometerVisibility
7:53 AM
Jul 22
70 °FSunny.No wind76%30.04 "Hg10 mi
6:53 AM67 °FClear.No wind85%30.03 "Hg10 mi
5:53 AM64 °FClear.No wind90%30.02 "Hg10 mi
4:53 AM65 °FClear.No wind87%30.02 "Hg10 mi
3:53 AM66 °FClear.No wind87%30.02 "Hg10 mi
2:53 AM67 °FClear.3 mph85%30.02 "Hg10 mi
1:53 AM67 °FClear.3 mph81%30.01 "Hg10 mi
12:53 AM68 °FClear.5 mph78%30.01 "Hg10 mi
11:53 PM
Jul 21
68 °FClear.6 mph76%30.01 "Hg10 mi
10:53 PM69 °FClear.8 mph76%30.01 "Hg10 mi
9:53 PM70 °FClear.7 mph73%30.00 "Hg10 mi
8:53 PM70 °FSunny.7 mph76%29.98 "Hg10 mi
7:53 PM71 °FSunny.10 mph71%29.98 "Hg10 mi
6:53 PM74 °FSunny.14 mph64%29.98 "Hg10 mi
5:53 PM76 °FSunny.12 mph60%29.98 "Hg10 mi
4:53 PM78 °FSunny.15 mph54%29.99 "Hg10 mi
3:53 PM79 °FSunny.15 mph54%30.01 "Hg10 mi
2:53 PM79 °FSunny.8 mph54%30.02 "Hg10 mi
1:53 PM79 °FSunny.13 mph52%30.02 "Hg10 mi
12:53 PM79 °FPassing clouds.9 mph54%30.03 "Hg10 mi
11:53 AM76 °FSunny.3 mph60%30.04 "Hg10 mi
10:53 AM75 °FPartly sunny.5 mph62%30.06 "Hg10 mi
9:53 AM73 °FPartly sunny.5 mph64%30.06 "Hg10 mi
Weather by CustomWeather, © 2014

See weather overviewHow to use our weather pages